Location: La Brionne
(46.1728°N, 1.7849°E)
Time: 11:51:44
(UTC+00:00)

Cosmos 2219 Rocket - Pass Details

Date: 29 October 2021
Orbit: 826 x 848 km, 71.0° (Epoch: 01 December)

Event Time Altitude Azimuth Distance (km) Brightness Sun altitude
Exits shadow 02:02:41 14° 58° (ENE) 2,221 4.9 -45.2°
Drops below altitude 10° 02:04:16 10° 74° (ENE) 2,469 5.2 -45.0°
Sets 02:07:52 0° 97° (E) 3,404 5.9 -44.4°
